• In Hungary
  • List of Countries
  • For 7 days
  • Water Temperature
  • Satellite Maps
  • Weather Map
  • News
  • Weather Widgets
  • user-avatar
    Login

    Hourly Weather Niedzwiada

    Today, 17 November, Friday

    Time Temperature Precipitation Wind Pressure Humidity
    00:00 +2°C° 0 mm 5 mps 755 mmHg 92%
    01:00 +2°C° 0 mm 5 mps 754 mmHg 93%
    02:00 +2°C° 0 mm 5 mps 754 mmHg 90%
    03:00 +2°C° 0 mm 5 mps 753 mmHg 87%
    04:00 +2°C° 0 mm 6 mps 753 mmHg 84%
    05:00 +2°C° 0.2 mm 6 mps 753 mmHg 83%
    06:00 +2°C° 0.2 mm 6 mps 753 mmHg 83%
    07:00 +3°C° 0 mm 4 mps 753 mmHg 85%
    08:00 +3°C° 0.2 mm 4 mps 753 mmHg 85%
    09:00 +3°C° 0.2 mm 4 mps 753 mmHg 85%
    10:00 +2°C° 0.2 mm 5 mps 753 mmHg 85%
    11:00 +4°C° 0 mm 4 mps 753 mmHg 83%
    12:00 +5°C° 0 mm 4 mps 753 mmHg 80%
    13:00 +6°C° 0 mm 4 mps 753 mmHg 77%
    14:00 +5°C° 0 mm 4 mps 753 mmHg 79%
    15:00 +4°C° 0 mm 3 mps 753 mmHg 81%
    16:00 +4°C° 0 mm 3 mps 754 mmHg 82%
    17:00 +3°C° 0 mm 3 mps 754 mmHg 84%
    18:00 +3°C° 0 mm 3 mps 754 mmHg 86%
    19:00 +2°C° 0 mm 3 mps 754 mmHg 87%
    20:00 +2°C° 0 mm 3 mps 754 mmHg 89%
    21:00 +2°C° 0 mm 3 mps 754 mmHg 90%
    22:00 0°C° 0 mm 4 mps 754 mmHg 91%
    23:00 0°C° 0 mm 4 mps 753 mmHg 92%

    Tomorrow, 18 November, Saturday

    Time Temperature Precipitation Wind Pressure Humidity
    00:00 0°C° 0 mm 4 mps 753 mmHg 93%
    01:00 0°C° 0 mm 4 mps 753 mmHg 93%
    02:00 0°C° 0 mm 4 mps 752 mmHg 93%
    03:00 -1°C° 0 mm 4 mps 752 mmHg 93%
    04:00 -1°C° 0 mm 4 mps 751 mmHg 93%
    05:00 -1°C° 0 mm 5 mps 751 mmHg 93%
    06:00 -1°C° 0 mm 5 mps 751 mmHg 92%
    07:00 -1°C° 0 mm 5 mps 750 mmHg 91%
    08:00 -1°C° 0 mm 6 mps 750 mmHg 87%
    09:00 -1°C° 0 mm 6 mps 750 mmHg 84%
    10:00 0°C° 0 mm 7 mps 749 mmHg 80%
    11:00 +2°C° 0 mm 7 mps 748 mmHg 76%
    12:00 +2°C° 0 mm 7 mps 748 mmHg 73%
    13:00 +2°C° 0 mm 8 mps 747 mmHg 69%
    14:00 +2°C° 0 mm 7 mps 746 mmHg 71%
    15:00 +2°C° 0 mm 7 mps 745 mmHg 72%
    16:00 +2°C° 0 mm 7 mps 744 mmHg 73%
    17:00 +2°C° 0.2 mm 7 mps 744 mmHg 74%
    18:00 +2°C° 0.2 mm 7 mps 743 mmHg 75%
    19:00 +1°C° 0.2 mm 8 mps 743 mmHg 75%
    20:00 +2°C° 0.3 mm 7 mps 742 mmHg 78%
    21:00 +2°C° 0.3 mm 7 mps 742 mmHg 80%
    22:00 +2°C° 0.3 mm 6 mps 741 mmHg 82%
    23:00 +1°C° 0.2 mm 6 mps 741 mmHg 83%

    Day after tomorrow, 19 November, Sunday

    Time Temperature Precipitation Wind Pressure Humidity
    00:00 +1°C° 0.2 mm 5 mps 741 mmHg 84%
    01:00 +1°C° 0.2 mm 5 mps 741 mmHg 85%
    02:00 0°C° 0 mm 5 mps 741 mmHg 86%
    03:00 0°C° 0 mm 5 mps 741 mmHg 87%
    04:00 -1°C° 0 mm 5 mps 740 mmHg 87%
    05:00 -2°C° 0 mm 6 mps 740 mmHg 87%
    06:00 -2°C° 0 mm 6 mps 740 mmHg 88%
    07:00 -2°C° 0 mm 6 mps 740 mmHg 88%
    08:00 -1°C° 0.1 mm 6 mps 740 mmHg 86%
    09:00 +1°C° 0.1 mm 6 mps 740 mmHg 84%
    10:00 +2°C° 0.1 mm 7 mps 739 mmHg 82%
    11:00 +2°C° 0 mm 7 mps 739 mmHg 81%
    12:00 +2°C° 0 mm 6 mps 739 mmHg 80%
    13:00 +3°C° 0 mm 6 mps 739 mmHg 79%
    14:00 +2°C° 0.1 mm 6 mps 738 mmHg 81%
    15:00 +2°C° 0.1 mm 6 mps 738 mmHg 83%
    16:00 +2°C° 0.1 mm 6 mps 738 mmHg 85%
    17:00 +2°C° 0.3 mm 6 mps 738 mmHg 84%
    18:00 +2°C° 0.3 mm 6 mps 738 mmHg 83%
    19:00 +2°C° 0.3 mm 6 mps 738 mmHg 82%
    20:00 +1°C° 0 mm 5 mps 738 mmHg 82%
    21:00 +1°C° 0 mm 5 mps 738 mmHg 82%
    22:00 0°C° 0 mm 5 mps 739 mmHg 82%
    23:00 0°C° 0.1 mm 5 mps 739 mmHg 83%

    20 November, Monday

    Time Temperature Precipitation Wind Pressure Humidity
    00:00 0°C° 0.1 mm 5 mps 739 mmHg 85%
    01:00 +1°C° 0.1 mm 5 mps 740 mmHg 86%
    02:00 +1°C° 0.4 mm 6 mps 740 mmHg 85%
    03:00 +1°C° 0.4 mm 6 mps 741 mmHg 84%
    04:00 +2°C° 0.4 mm 7 mps 741 mmHg 83%
    05:00 0°C° 0.1 mm 7 mps 742 mmHg 82%
    06:00 +1°C° 0.1 mm 6 mps 742 mmHg 81%
    07:00 -1°C° 0.1 mm 6 mps 743 mmHg 79%
    08:00 +1°C° 0 mm 6 mps 743 mmHg 77%
    09:00 +1°C° 0 mm 6 mps 744 mmHg 74%
    10:00 +1°C° 0 mm 6 mps 744 mmHg 71%
    11:00 +2°C° 0 mm 5 mps 744 mmHg 70%
    12:00 +2°C° 0 mm 5 mps 744 mmHg 69%
    13:00 +2°C° 0 mm 5 mps 745 mmHg 69%
    14:00 +3°C° 0.1 mm 4 mps 745 mmHg 73%
    15:00 +1°C° 0.1 mm 4 mps 744 mmHg 78%
    16:00 +2°C° 0.1 mm 3 mps 744 mmHg 82%
    17:00 +1°C° 0.1 mm 3 mps 744 mmHg 84%
    18:00 +1°C° 0.1 mm 3 mps 744 mmHg 85%
    19:00 +1°C° 0.1 mm 3 mps 744 mmHg 87%
    20:00 +1°C° 0 mm 3 mps 744 mmHg 87%
    21:00 +1°C° 0 mm 3 mps 744 mmHg 88%
    22:00 0°C° 0 mm 3 mps 744 mmHg 88%
    23:00 +1°C° 0 mm 2 mps 743 mmHg 89%

    21 November, Tuesday

    Time Temperature Precipitation Wind Pressure Humidity
    00:00 +1°C° 0 mm 2 mps 743 mmHg 91%
    01:00 +1°C° 0 mm 2 mps 742 mmHg 92%
    02:00 +2°C° 0 mm 1 mps 742 mmHg 92%
    03:00 +2°C° 0 mm 1 mps 742 mmHg 93%
    04:00 +2°C° 0 mm 1 mps 741 mmHg 93%
    05:00 +1°C° 0 mm 1 mps 742 mmHg 92%
    06:00 +1°C° 0 mm 1 mps 742 mmHg 92%
    07:00 +1°C° 0 mm 1 mps 742 mmHg 91%
    08:00 +2°C° 0 mm 1 mps 742 mmHg 87%
    09:00 +1°C° 0 mm 2 mps 742 mmHg 83%
    10:00 +2°C° 0 mm 2 mps 743 mmHg 79%
    11:00 +3°C° 0 mm 2 mps 743 mmHg 75%
    12:00 +2°C° 0 mm 3 mps 744 mmHg 72%
    13:00 +3°C° 0 mm 4 mps 744 mmHg 68%
    14:00 +2°C° 0 mm 3 mps 744 mmHg 72%
    15:00 +1°C° 0 mm 3 mps 744 mmHg 76%
    16:00 0°C° 0 mm 3 mps 745 mmHg 81%
    17:00 0°C° 0 mm 3 mps 745 mmHg 82%
    18:00 -1°C° 0 mm 3 mps 745 mmHg 83%
    19:00 -1°C° 0 mm 3 mps 746 mmHg 84%
    20:00 -1°C° 0 mm 3 mps 746 mmHg 84%
    21:00 -1°C° 0 mm 3 mps 746 mmHg 84%
    22:00 -2°C° 0 mm 3 mps 746 mmHg 84%
    23:00 -2°C° 0 mm 3 mps 746 mmHg 84%

    22 November, Wednesday

    Time Temperature Precipitation Wind Pressure Humidity
    00:00 -2°C° 0 mm 3 mps 747 mmHg 84%
    01:00 -2°C° 0 mm 3 mps 747 mmHg 84%
    02:00 -1°C° 0 mm 2 mps 747 mmHg 83%
    03:00 -1°C° 0 mm 2 mps 747 mmHg 82%
    04:00 -1°C° 0 mm 2 mps 747 mmHg 81%
    05:00 -1°C° 0 mm 2 mps 747 mmHg 81%
    06:00 -1°C° 0 mm 2 mps 747 mmHg 81%
    07:00 +1°C° 0 mm 1 mps 747 mmHg 81%
    08:00 +2°C° 0 mm 1 mps 747 mmHg 79%
    09:00 +2°C° 0 mm 1 mps 747 mmHg 76%
    10:00 +3°C° 0 mm 1 mps 748 mmHg 73%
    11:00 +3°C° 0 mm 1 mps 748 mmHg 72%
    12:00 +3°C° 0 mm 1 mps 748 mmHg 71%
    13:00 +4°C° 0 mm 1 mps 748 mmHg 70%
    14:00 +3°C° 0 mm 1 mps 748 mmHg 73%
    15:00 +3°C° 0 mm 1 mps 748 mmHg 76%
    16:00 +1°C° 0 mm 2 mps 749 mmHg 79%
    17:00 +1°C° 0 mm 2 mps 749 mmHg 80%
    18:00 +1°C° 0 mm 2 mps 749 mmHg 81%
    19:00 +1°C° 0 mm 2 mps 749 mmHg 82%
    20:00 0°C° 0 mm 3 mps 749 mmHg 83%
    21:00 0°C° 0 mm 3 mps 749 mmHg 83%
    22:00 0°C° 0 mm 3 mps 749 mmHg 84%
    23:00 -1°C° 0 mm 4 mps 749 mmHg 85%
    Show more